Weather History for KAJO - March, 2014

Change the Weather History Date:

Wednesday, March 19, 2014

  Actual Average (KONT) Record (KONT)
Temperature  
Mean Temperature 60 °F 59 °F  
Max Temperature 81 °F 70 °F 87 °F (2001)
Min Temperature 39 °F 47 °F 38 °F (2006)
Degree Days  
Heating Degree Days 5 7  
Month to date heating degree days 141  
Since 1 July heating degree days 1298  
Cooling Degree Days 0 0  
Month to date cooling degree days 6  
Year to date cooling degree days 12  
Growing Degree Days 10 (Base 50)    
Moisture  
Dew Point 38 °F    
Average Humidity 68    
Maximum Humidity 100    
Minimum Humidity 5    
Precipitation  
Precipitation 0.00 in 0.04 in 0.12 in (2005)
Month to date precipitation 1.80  
Year to date precipitation 8.50  
Snow  
Snow 0.00 in - - ()
Month to date snowfall  
Since 1 July snowfall  
Snow Depth -    
Sea Level Pressure  
Sea Level Pressure 29.99 in    
Wind  
Wind Speed 2 mph (WSW)    
Max Wind Speed 14 mph    
Max Gust Speed 18 mph    
Visibility 7 miles    
Events Fog    
T = Trace of Precipitation, MM = Missing Value Source: NWS Daily Summary

Daily Weather History Graph

Daily Weather History Graph

Search for Another Location

Airport or City:

Trip Planner

Search our weather history database for the weather conditions in past years. The results will help you decide how hot, cold, wet, or windy it might be!

Date:

Astronomy

Mar. 19, 2014 Rise Set
Actual Time 6:55 AM PDT 7:01 PM PDT
Civil Twilight 6:30 AM PDT 7:26 PM PDT
Nautical Twilight 6:01 AM PDT 7:55 PM PDT
Astronomical Twilight 5:32 AM PDT 8:24 PM PDT
Moon 10:14 PM PDT (3/19) 8:32 AM PDT (3/19)
Length of Visible Light 12h 55m
Length of Day
12h 06m
Waning Gibbous, 90% of the Moon is Illuminated
Mar 19
Waning Gibbous
Mar 23
Last Quarter
Mar 30
New
Apr 7
First Quarter
Apr 15
Full

Hourly Weather History & Observations

Time (PDT) Temp. Windchill Dew Point Humidity Pressure Visibility Wind Dir Wind Speed Gust Speed Precip Events Conditions
12:56 AM 47.8 °F - 46.9 °F 97% 29.95 in 9.0 mi Calm Calm - N/A   Clear
1:56 AM 45.9 °F - 45.0 °F 97% 29.95 in 6.0 mi Calm Calm - N/A   Clear
2:56 AM 46.9 °F - 45.9 °F 96% 29.95 in 10.0 mi Calm Calm - N/A   Clear
3:20 AM 42.8 °F - 42.8 °F 100% 29.97 in 1.0 mi Calm Calm - N/A   Clear
3:22 AM 42.8 °F - 42.8 °F 100% 29.97 in 0.5 mi Calm Calm - N/A Fog Fog
3:33 AM 42.8 °F - 42.8 °F 100% 29.97 in 1.0 mi Calm Calm - N/A   Clear
3:35 AM 44.6 °F - 44.6 °F 100% 29.97 in 2.0 mi Calm Calm - N/A   Clear
3:42 AM 44.6 °F - 44.6 °F 100% 29.97 in 5.0 mi Calm Calm - N/A   Clear
3:49 AM 42.8 °F 41.1 °F 42.8 °F 100% 29.97 in 1.8 mi Variable 3.5 mph - N/A   Clear
3:56 AM 43.9 °F - 43.9 °F 100% 29.96 in 0.8 mi Calm Calm - N/A   Clear
3:59 AM 44.6 °F - 44.6 °F 100% 29.97 in 1.2 mi Calm Calm - N/A   Mostly Cloudy
4:03 AM 44.6 °F - 44.6 °F 100% 29.97 in 1.0 mi Calm Calm - N/A   Clear
4:13 AM 44.6 °F - 44.6 °F 100% 29.97 in 1.8 mi Calm Calm - N/A   Clear
4:15 AM 44.6 °F 43.1 °F 44.6 °F 100% 29.97 in 4.0 mi NNE 3.5 mph - N/A   Clear
4:56 AM 43.9 °F - 43.9 °F 100% 29.96 in 9.0 mi Calm Calm - N/A   Clear
5:56 AM 41.9 °F 40.0 °F 41.9 °F 100% 29.98 in 10.0 mi East 3.5 mph - N/A   Clear
6:56 AM 39.9 °F 37.8 °F 37.9 °F 93% 30.00 in 10.0 mi Variable 3.5 mph - N/A   Clear
7:56 AM 46.9 °F - 41.9 °F 83% 30.02 in 10.0 mi West 4.6 mph - N/A   Clear
8:56 AM 54.9 °F - 45.0 °F 69% 30.03 in 10.0 mi Calm Calm - N/A   Clear
9:56 AM 72.0 °F - 14.0 °F 11% 30.03 in 10.0 mi ESE 9.2 mph - N/A   Clear
10:56 AM 74.8 °F - 9.1 °F 8% 30.04 in 10.0 mi ESE 10.4 mph - N/A   Clear
11:56 AM 77.9 °F - 9.1 °F 7% 30.03 in 10.0 mi East 11.5 mph - N/A   Clear
12:56 PM 81.0 °F - 5.0 °F 5% 30.01 in 10.0 mi ENE 8.1 mph - N/A   Clear
1:56 PM 79.9 °F - 9.1 °F 7% 29.99 in 10.0 mi SSW 6.9 mph - N/A   Clear
2:56 PM 79.9 °F - 36.0 °F 21% 29.98 in 10.0 mi West 11.5 mph - N/A   Clear
3:56 PM 79.0 °F - 41.9 °F 27% 29.98 in 10.0 mi West 13.8 mph 18.4 mph N/A   Clear
4:56 PM 77.9 °F - 37.9 °F 24% 29.98 in 10.0 mi West 13.8 mph - N/A   Clear
5:56 PM 74.8 °F - 36.0 °F 24% 29.99 in 10.0 mi West 9.2 mph - N/A   Clear
6:56 PM 70.9 °F - 37.9 °F 30% 29.99 in 10.0 mi West 8.1 mph - N/A   Clear
7:56 PM 68.0 °F - 39.9 °F 36% 30.00 in 10.0 mi West 5.8 mph - N/A   Clear
8:56 PM 63.9 °F - 47.8 °F 56% 30.02 in 10.0 mi West 4.6 mph - N/A   Clear
9:56 PM 61.9 °F - 47.8 °F 60% 30.04 in 10.0 mi Variable 3.5 mph - N/A   Clear
10:56 PM 56.8 °F - 45.9 °F 67% 30.06 in 10.0 mi Calm Calm - N/A   Clear
11:56 PM 54.0 °F - 50.0 °F 86% 30.06 in 10.0 mi Calm Calm - N/A   Clear